BTR5908 GMFF-LFTW

Flight info

Callsign BTR5908
Flight time N/A
Altitude 36000
Route BOKPA UG850 BERUM DCT GONZA N860 BEGOX DCT LASPO DCT SOPET DCT DIKUT DCT TORDU DCT LOTOS DCT EBROX DCT PEXOT DCT RODRA DCT BCN DCT FEVIK DCT DALIN DCT PIVUS DCT DIBER DCT SOSUR Z16 IDELO Z154 BULTO Y341 SALIN Y25 MARRI
Aircraft B738/M-SDE2E3FGHIRWXY/LB1

Departure

Time 2026-04-15 06:03
Airport Fes Saïss International Airport (GMFF)

Arrival

Time N/A
Airport Nîmes-Arles-Camargue Airport (LFTW)
Time Latitude Longitude Altitude Speed Heading
2026-04-15 05:29 33.92947 -4.98071 1882 ft 0 kts 345°
2026-04-15 05:57 33.92948 -4.98072 1854 ft 0 kts 330°
2026-04-15 05:57 33.92948 -4.98077 1881 ft 1 kts 287°
2026-04-15 05:58 33.92944 -4.98084 1878 ft 1 kts 234°
2026-04-15 05:58 33.92934 -4.98084 1879 ft 2 kts 161°
2026-04-15 05:58 33.92919 -4.98063 1879 ft 5 kts 115°
2026-04-15 05:58 33.92902 -4.98005 1879 ft 10 kts 108°
2026-04-15 05:59 33.92845 -4.97957 1881 ft 12 kts 169°
2026-04-15 05:59 33.92761 -4.97917 1879 ft 13 kts 137°
2026-04-15 05:59 33.92735 -4.97808 1884 ft 16 kts 93°
2026-04-15 05:59 33.92728 -4.97642 1885 ft 24 kts 90°
2026-04-15 06:00 33.92730 -4.97418 1889 ft 30 kts 90°
2026-04-15 06:00 33.92728 -4.97145 1891 ft 35 kts 90°
2026-04-15 06:00 33.92731 -4.96861 1895 ft 32 kts 89°
2026-04-15 06:00 33.92730 -4.96602 1888 ft 30 kts 90°
2026-04-15 06:01 33.92729 -4.96361 1901 ft 28 kts 90°
2026-04-15 06:01 33.92729 -4.96203 1901 ft 12 kts 83°
2026-04-15 06:01 33.92755 -4.96111 1898 ft 12 kts 108°
2026-04-15 06:01 33.92720 -4.96100 1893 ft 5 kts 238°
2026-04-15 06:02 33.92720 -4.96120 1903 ft 0 kts 277°
2026-04-15 06:02 33.92725 -4.96323 1901 ft 61 kts 271°
2026-04-15 06:03 33.92728 -4.97135 1891 ft 131 kts 271°
2026-04-15 06:03 33.92668 -4.98431 2011 ft 168 kts 258°
2026-04-15 06:03 33.92386 -4.99749 2857 ft 168 kts 258°
2026-04-15 06:03 33.92167 -5.01252 3316 ft 191 kts 272°
2026-04-15 06:04 33.92552 -5.02819 3943 ft 202 kts 293°
2026-04-15 06:04 33.93107 -5.04417 4410 ft 215 kts 286°
2026-04-15 06:04 33.93642 -5.06180 4566 ft 235 kts 305°
2026-04-15 06:04 33.94902 -5.07473 4814 ft 246 kts 338°
2026-04-15 06:05 33.96581 -5.07780 5257 ft 249 kts
2026-04-15 06:05 33.98265 -5.07284 5769 ft 251 kts 21°
2026-04-15 06:05 33.99742 -5.06095 6055 ft 266 kts 43°
2026-04-15 06:05 34.01105 -5.04508 6467 ft 278 kts 44°
2026-04-15 06:06 34.02477 -5.02856 7210 ft 278 kts 44°
2026-04-15 06:06 34.03845 -5.01202 7972 ft 280 kts 44°
2026-04-15 06:06 34.05227 -4.99536 8698 ft 282 kts 44°
2026-04-15 06:06 34.06622 -4.97858 9438 ft 284 kts 43°
2026-04-15 06:07 34.08033 -4.96166 10151 ft 287 kts 43°
2026-04-15 06:07 34.09466 -4.94450 10617 ft 299 kts 43°
2026-04-15 06:07 34.10999 -4.92620 10766 ft 320 kts 43°
2026-04-15 06:07 34.12634 -4.90669 10914 ft 341 kts 43°
2026-04-15 06:08 34.14354 -4.88611 11226 ft 353 kts 43°
2026-04-15 06:08 34.16111 -4.86508 11803 ft 357 kts 43°
2026-04-15 06:08 34.17876 -4.84393 12464 ft 359 kts 43°
2026-04-15 06:08 34.19052 -4.82984 12894 ft 360 kts 43°
2026-04-15 06:09 34.20838 -4.80845 13562 ft 363 kts 43°
2026-04-15 06:09 34.22642 -4.78685 14192 ft 367 kts 43°
2026-04-15 06:09 34.25056 -4.75793 14983 ft 371 kts 43°
2026-04-15 06:09 34.26899 -4.73583 15579 ft 374 kts 43°
2026-04-15 06:10 34.28754 -4.71359 16160 ft 378 kts 43°
2026-04-15 06:10 34.30628 -4.69111 16728 ft 381 kts 43°
2026-04-15 06:10 34.31904 -4.67579 17111 ft 384 kts 43°
2026-04-15 06:10 34.33807 -4.65296 17681 ft 387 kts 43°
2026-04-15 06:11 34.35727 -4.62989 18248 ft 391 kts 43°
2026-04-15 06:11 34.37662 -4.60659 18753 ft 394 kts 43°
2026-04-15 06:11 34.39634 -4.58330 19208 ft 396 kts 40°
2026-04-15 06:11 34.41694 -4.56167 19692 ft 399 kts 38°
2026-04-15 06:12 34.43831 -4.54005 20122 ft 402 kts 38°
2026-04-15 06:12 34.45995 -4.51846 20633 ft 404 kts 37°
2026-04-15 06:12 34.48174 -4.49676 21141 ft 406 kts 37°
2026-04-15 06:12 34.50359 -4.47495 21608 ft 408 kts 37°
2026-04-15 06:13 34.52559 -4.45292 22041 ft 411 kts 37°
2026-04-15 06:13 34.54771 -4.43068 22473 ft 414 kts 37°
2026-04-15 06:13 34.56994 -4.40828 22914 ft 417 kts 37°
2026-04-15 06:13 34.59230 -4.38569 23334 ft 420 kts 37°
2026-04-15 06:14 34.61482 -4.36293 23791 ft 422 kts 37°
2026-04-15 06:14 34.63745 -4.34001 24150 ft 424 kts 37°
2026-04-15 06:14 34.66015 -4.31700 24488 ft 426 kts 37°
2026-04-15 06:14 34.68298 -4.29384 24846 ft 428 kts 37°
2026-04-15 06:15 34.70589 -4.27059 25183 ft 431 kts 37°
2026-04-15 06:15 34.72893 -4.24719 25505 ft 433 kts 37°
2026-04-15 06:15 34.75212 -4.22361 25810 ft 436 kts 37°
2026-04-15 06:15 34.77543 -4.19990 26158 ft 437 kts 37°
2026-04-15 06:16 34.79878 -4.17613 26499 ft 439 kts 37°
2026-04-15 06:16 34.82226 -4.15221 26815 ft 441 kts 37°
2026-04-15 06:16 34.84589 -4.12813 27126 ft 444 kts 37°
2026-04-15 06:16 34.86957 -4.10396 27422 ft 446 kts 37°
2026-04-15 06:17 34.89341 -4.07962 27726 ft 448 kts 37°
2026-04-15 06:17 34.91733 -4.05517 28037 ft 450 kts 37°
2026-04-15 06:17 34.94133 -4.03062 28340 ft 452 kts 37°
2026-04-15 06:17 34.96546 -4.00592 28622 ft 454 kts 37°
2026-04-15 06:18 34.98970 -3.98108 28902 ft 456 kts 37°
2026-04-15 06:18 35.01403 -3.95614 29183 ft 458 kts 37°
2026-04-15 06:18 35.03847 -3.93106 29447 ft 460 kts 37°
2026-04-15 06:18 35.06296 -3.90592 29743 ft 461 kts 37°
2026-04-15 06:19 35.08745 -3.88074 30143 ft 459 kts 37°
2026-04-15 06:19 35.11185 -3.85564 30525 ft 458 kts 37°
2026-04-15 06:19 35.13616 -3.83061 30850 ft 457 kts 37°
2026-04-15 06:19 35.16046 -3.80557 31129 ft 457 kts 37°
2026-04-15 06:20 35.18448 -3.78081 31402 ft 458 kts 37°
2026-04-15 06:20 35.20881 -3.75572 31719 ft 457 kts 37°
2026-04-15 06:20 35.23307 -3.73066 32048 ft 456 kts 37°